Time,TemperatureF,DewpointF,PressureIn,WindDirection,WindDirectionDegrees,WindSpeedMPH,WindSpeedGustMPH,Humidity,HourlyPrecipIn,Conditions,Clouds,dailyrainin,SoftwareType,DateUTC
2013-08-29 00:06:00,70.5,70.2,29.87,South,180,0.0,-999.0,99,-99.99,,,0.00,Acu-Link.com,2013-08-29 04:06:00,
2013-08-29 00:21:00,70.3,70.0,29.86,SW,225,0.0,-999.0,99,-99.99,,,0.00,Acu-Link.com,2013-08-29 04:21:00,
2013-08-29 00:36:00,70.3,70.0,29.86,SSE,157,0.0,-999.0,99,-99.99,,,0.00,Acu-Link.com,2013-08-29 04:36:00,
2013-08-29 00:51:00,69.6,69.3,29.86,ESE,112,0.0,-999.0,99,-99.99,,,0.00,Acu-Link.com,2013-08-29 04:51:00,
2013-08-29 01:06:00,69.4,69.1,29.85,ESE,112,0.0,-999.0,99,-99.99,,,0.00,Acu-Link.com,2013-08-29 05:06:00,
2013-08-29 01:22:00,69.3,69.0,29.85,SE,135,0.0,-999.0,99,-99.99,,,0.00,Acu-Link.com,2013-08-29 05:22:00,
2013-08-29 01:37:00,69.1,68.8,29.84,SSE,157,0.0,-999.0,99,-99.99,,,0.00,Acu-Link.com,2013-08-29 05:37:00,
2013-08-29 01:52:00,68.7,68.4,29.83,ESE,112,0.0,-999.0,99,-99.99,,,0.00,Acu-Link.com,2013-08-29 05:52:00,
2013-08-29 02:07:00,68.5,68.2,29.84,East,90,0.0,-999.0,99,-99.99,,,0.00,Acu-Link.com,2013-08-29 06:07:00,
2013-08-29 02:22:00,68.2,67.9,29.84,SE,135,0.0,-999.0,99,-99.99,,,0.00,Acu-Link.com,2013-08-29 06:22:00,
2013-08-29 02:37:00,68.2,67.9,29.84,ESE,112,0.0,-999.0,99,-99.99,,,0.00,Acu-Link.com,2013-08-29 06:37:00,
2013-08-29 02:52:00,68.0,67.7,29.84,SSE,157,0.0,-999.0,99,-99.99,,,0.00,Acu-Link.com,2013-08-29 06:52:00,
2013-08-29 03:07:00,67.6,67.3,29.84,SE,135,0.0,-999.0,99,-99.99,,,0.00,Acu-Link.com,2013-08-29 07:07:00,
2013-08-29 03:22:00,67.3,67.0,29.85,SE,135,0.0,-999.0,99,-99.99,,,0.00,Acu-Link.com,2013-08-29 07:22:00,
2013-08-29 03:38:00,67.1,66.8,29.84,South,180,0.0,-999.0,99,-99.99,,,0.00,Acu-Link.com,2013-08-29 07:38:00,
2013-08-29 03:53:00,66.9,66.6,29.84,East,90,0.0,-999.0,99,-99.99,,,0.00,Acu-Link.com,2013-08-29 07:53:00,
2013-08-29 04:08:00,66.9,66.6,29.84,NE,45,0.0,-999.0,99,-99.99,,,0.00,Acu-Link.com,2013-08-29 08:08:00,
2013-08-29 04:23:00,66.9,66.6,29.85,NE,45,0.0,-999.0,99,-99.99,,,0.00,Acu-Link.com,2013-08-29 08:23:00,
2013-08-29 04:38:00,66.7,66.4,29.85,ESE,112,0.0,-999.0,99,-99.99,,,0.00,Acu-Link.com,2013-08-29 08:38:00,
2013-08-29 04:53:00,66.6,66.3,29.85,SSE,157,0.0,-999.0,99,-99.99,,,0.00,Acu-Link.com,2013-08-29 08:53:00,
2013-08-29 05:09:00,66.4,66.1,29.84,SE,135,0.0,-999.0,99,-99.99,,,0.00,Acu-Link.com,2013-08-29 09:09:00,
2013-08-29 05:24:00,66.2,65.9,29.85,ESE,112,0.0,-999.0,99,-99.99,,,0.00,Acu-Link.com,2013-08-29 09:24:00,
2013-08-29 05:39:00,66.0,65.7,29.85,SSE,157,0.0,-999.0,99,-99.99,,,0.00,Acu-Link.com,2013-08-29 09:39:00,
2013-08-29 05:54:00,66.2,65.9,29.84,SE,135,0.0,-999.0,99,-99.99,,,0.00,Acu-Link.com,2013-08-29 09:54:00,
2013-08-29 06:09:00,66.2,65.9,29.85,ESE,112,0.0,-999.0,99,-99.99,,,0.00,Acu-Link.com,2013-08-29 10:09:00,
2013-08-29 06:24:00,66.6,66.3,29.85,SE,135,0.0,-999.0,99,-99.99,,,0.00,Acu-Link.com,2013-08-29 10:24:00,
2013-08-29 06:39:00,66.6,66.3,29.85,ESE,112,0.0,-999.0,99,-99.99,,,0.00,Acu-Link.com,2013-08-29 10:39:00,
2013-08-29 06:55:00,67.1,66.8,29.86,ESE,112,0.0,-999.0,99,-99.99,,,0.00,Acu-Link.com,2013-08-29 10:55:00,
2013-08-29 07:10:00,67.3,67.0,29.86,SSE,157,0.0,-999.0,99,-99.99,,,0.00,Acu-Link.com,2013-08-29 11:10:00,
2013-08-29 07:25:00,67.5,67.2,29.87,SE,135,0.0,-999.0,99,-99.99,,,0.00,Acu-Link.com,2013-08-29 11:25:00,
2013-08-29 07:40:00,67.8,67.5,29.87,SE,135,0.0,-999.0,99,-99.99,,,0.00,Acu-Link.com,2013-08-29 11:40:00,
2013-08-29 07:55:00,68.5,68.2,29.87,SE,135,0.0,-999.0,99,-99.99,,,0.00,Acu-Link.com,2013-08-29 11:55:00,
2013-08-29 08:10:00,69.1,68.8,29.88,SSE,157,0.0,-999.0,99,-99.99,,,0.00,Acu-Link.com,2013-08-29 12:10:00,
2013-08-29 08:25:00,70.3,70.0,29.88,SSE,157,0.0,-999.0,99,-99.99,,,0.00,Acu-Link.com,2013-08-29 12:25:00,
2013-08-29 08:40:00,71.8,71.5,29.88,SSE,157,0.0,-999.0,99,-99.99,,,0.00,Acu-Link.com,2013-08-29 12:40:00,
2013-08-29 08:55:00,72.7,72.4,29.88,SSE,157,0.0,-999.0,99,-99.99,,,0.00,Acu-Link.com,2013-08-29 12:55:00,
2013-08-29 09:11:00,74.1,73.8,29.88,South,180,1.1,-999.0,99,-99.99,,,0.00,Acu-Link.com,2013-08-29 13:11:00,
2013-08-29 09:26:00,75.7,74.5,29.89,SSW,202,1.1,-999.0,96,-99.99,,,0.00,Acu-Link.com,2013-08-29 13:26:00,
2013-08-29 09:41:00,79.0,75.5,29.88,ENE,67,0.0,-999.0,89,-99.99,,,0.00,Acu-Link.com,2013-08-29 13:41:00,
2013-08-29 09:56:00,80.8,75.5,29.88,ESE,112,0.0,-999.0,84,-99.99,,,0.00,Acu-Link.com,2013-08-29 13:56:00,
2013-08-29 10:11:00,83.1,76.3,29.89,SW,225,0.0,-999.0,80,-99.99,,,0.00,Acu-Link.com,2013-08-29 14:11:00,
2013-08-29 10:26:00,82.9,75.7,29.88,South,180,0.0,-999.0,79,-99.99,,,0.00,Acu-Link.com,2013-08-29 14:26:00,
2013-08-29 10:41:00,81.5,75.1,29.88,SSW,202,0.0,-999.0,81,-99.99,,,0.00,Acu-Link.com,2013-08-29 14:41:00,
2013-08-29 10:56:00,81.1,75.1,29.88,NE,45,2.7,-999.0,82,-99.99,,,0.00,Acu-Link.com,2013-08-29 14:56:00,
2013-08-29 11:11:00,83.1,75.1,29.88,ESE,112,0.0,-999.0,77,-99.99,,,0.00,Acu-Link.com,2013-08-29 15:11:00,
2013-08-29 11:27:00,84.4,73.5,29.88,SSE,157,0.0,-999.0,70,-99.99,,,0.00,Acu-Link.com,2013-08-29 15:27:00,
2013-08-29 11:42:00,84.9,75.3,29.88,SSW,202,0.0,-999.0,73,-99.99,,,0.00,Acu-Link.com,2013-08-29 15:42:00,
2013-08-29 11:57:00,86.9,75.0,29.87,SSE,157,2.7,-999.0,68,-99.99,,,0.00,Acu-Link.com,2013-08-29 15:57:00,
2013-08-29 12:12:00,84.0,74.8,29.87,West,270,0.0,-999.0,74,-99.99,,,0.00,Acu-Link.com,2013-08-29 16:12:00,
2013-08-29 12:27:00,87.3,74.1,29.87,NE,45,0.0,-999.0,65,-99.99,,,0.00,Acu-Link.com,2013-08-29 16:27:00,
2013-08-29 12:42:00,86.5,75.1,29.87,WNW,292,3.2,-999.0,69,-99.99,,,0.00,Acu-Link.com,2013-08-29 16:42:00,
2013-08-29 12:57:00,86.5,75.1,29.86,NW,315,0.0,-999.0,69,-99.99,,,0.00,Acu-Link.com,2013-08-29 16:57:00,
2013-08-29 13:12:00,86.2,74.4,29.86,SW,225,2.2,-999.0,68,-99.99,,,0.00,Acu-Link.com,2013-08-29 17:12:00,
2013-08-29 13:27:00,88.9,75.1,29.85,North,0,2.2,-999.0,64,-99.99,,,0.00,Acu-Link.com,2013-08-29 17:27:00,
2013-08-29 13:43:00,89.4,75.6,29.85,WNW,292,2.2,-999.0,64,-99.99,,,0.00,Acu-Link.com,2013-08-29 17:43:00,
2013-08-29 13:58:00,86.9,74.6,29.85,North,0,3.7,-999.0,67,-99.99,,,0.00,Acu-Link.com,2013-08-29 17:58:00,
2013-08-29 14:13:00,89.2,78.5,29.84,NNE,22,3.7,-999.0,71,-99.99,,,0.00,Acu-Link.com,2013-08-29 18:13:00,
2013-08-29 14:28:00,88.2,74.5,29.84,SW,225,0.0,-999.0,64,-99.99,,,0.00,Acu-Link.com,2013-08-29 18:28:00,
2013-08-29 14:43:00,88.3,75.9,29.83,WNW,292,1.1,-999.0,67,-99.99,,,0.00,Acu-Link.com,2013-08-29 18:43:00,
2013-08-29 14:58:00,87.6,75.7,29.83,SSE,157,1.1,-999.0,68,-99.99,,,0.00,Acu-Link.com,2013-08-29 18:58:00,
2013-08-29 15:13:00,87.6,75.7,29.82,NE,45,0.0,-999.0,68,-99.99,,,0.00,Acu-Link.com,2013-08-29 19:13:00,
2013-08-29 15:28:00,89.8,75.5,29.82,WNW,292,2.7,-999.0,63,-99.99,,,0.00,Acu-Link.com,2013-08-29 19:28:00,
2013-08-29 15:43:00,89.2,74.9,29.81,SE,135,0.0,-999.0,63,-99.99,,,0.00,Acu-Link.com,2013-08-29 19:43:00,
2013-08-29 15:58:00,89.8,74.5,29.80,SE,135,0.0,-999.0,61,-99.99,,,0.00,Acu-Link.com,2013-08-29 19:58:00,
2013-08-29 16:14:00,90.7,77.3,29.80,SW,225,0.0,-999.0,65,-99.99,,,0.00,Acu-Link.com,2013-08-29 20:14:00,
2013-08-29 16:29:00,91.4,77.0,29.80,West,270,2.7,-999.0,63,-99.99,,,0.00,Acu-Link.com,2013-08-29 20:29:00,
2013-08-29 16:44:00,90.9,76.5,29.79,NW,315,1.1,-999.0,63,-99.99,,,0.00,Acu-Link.com,2013-08-29 20:44:00,
2013-08-29 16:59:00,90.1,77.2,29.79,WSW,247,0.0,-999.0,66,-99.99,,,0.00,Acu-Link.com,2013-08-29 20:59:00,
2013-08-29 17:14:00,88.3,78.1,29.79,WNW,292,0.0,-999.0,72,-99.99,,,0.00,Acu-Link.com,2013-08-29 21:14:00,
2013-08-29 17:29:00,90.1,78.1,29.78,SSW,202,2.7,-999.0,68,-99.99,,,0.00,Acu-Link.com,2013-08-29 21:29:00,
2013-08-29 17:44:00,90.0,76.1,29.78,WSW,247,1.7,-999.0,64,-99.99,,,0.00,Acu-Link.com,2013-08-29 21:44:00,
2013-08-29 17:59:00,89.1,76.2,29.77,West,270,2.2,-999.0,66,-99.99,,,0.00,Acu-Link.com,2013-08-29 21:59:00,
2013-08-29 18:14:00,89.1,75.3,29.77,WNW,292,7.8,-999.0,64,-99.99,,,0.00,Acu-Link.com,2013-08-29 22:14:00,
2013-08-29 18:30:00,89.4,75.6,29.78,WNW,292,3.7,-999.0,64,-99.99,,,0.00,Acu-Link.com,2013-08-29 22:30:00,
2013-08-29 18:45:00,91.8,77.4,29.78,West,270,0.0,-999.0,63,-99.99,,,0.00,Acu-Link.com,2013-08-29 22:45:00,
2013-08-29 19:00:00,88.9,78.7,29.78,NE,45,0.0,-999.0,72,-99.99,,,0.00,Acu-Link.com,2013-08-29 23:00:00,
2013-08-29 19:15:00,86.9,78.0,29.78,NE,45,0.0,-999.0,75,-99.99,,,0.00,Acu-Link.com,2013-08-29 23:15:00,
2013-08-29 19:30:00,83.8,77.7,29.78,West,270,0.0,-999.0,82,-99.99,,,0.00,Acu-Link.com,2013-08-29 23:30:00,
2013-08-29 19:45:00,83.1,78.1,29.79,ESE,112,0.0,-999.0,85,-99.99,,,0.00,Acu-Link.com,2013-08-29 23:45:00,
2013-08-29 20:00:00,81.5,77.2,29.80,ENE,67,3.2,-999.0,87,-99.99,,,0.00,Acu-Link.com,2013-08-30 00:00:00,
2013-08-29 20:15:00,80.4,76.2,29.80,NW,315,0.0,-999.0,87,-99.99,,,0.00,Acu-Link.com,2013-08-30 00:15:00,
2013-08-29 20:30:00,79.0,76.1,29.80,NW,315,0.0,-999.0,91,-99.99,,,0.00,Acu-Link.com,2013-08-30 00:30:00,
2013-08-29 20:46:00,78.1,75.9,29.80,NNE,22,0.0,-999.0,93,-99.99,,,0.00,Acu-Link.com,2013-08-30 00:46:00,
2013-08-29 21:01:00,77.2,75.3,29.80,East,90,0.0,-999.0,94,-99.99,,,0.00,Acu-Link.com,2013-08-30 01:01:00,
2013-08-29 21:16:00,76.6,75.4,29.81,East,90,0.0,-999.0,96,-99.99,,,0.00,Acu-Link.com,2013-08-30 01:16:00,
2013-08-29 21:31:00,76.1,75.5,29.81,ESE,112,0.0,-999.0,98,-99.99,,,0.00,Acu-Link.com,2013-08-30 01:31:00,
2013-08-29 21:46:00,75.7,75.4,29.81,ENE,67,0.0,-999.0,99,-99.99,,,0.00,Acu-Link.com,2013-08-30 01:46:00,
2013-08-29 22:01:00,75.2,74.9,29.82,NW,315,0.0,-999.0,99,-99.99,,,0.00,Acu-Link.com,2013-08-30 02:01:00,
2013-08-29 22:16:00,74.8,74.5,29.82,NNE,22,0.0,-999.0,99,-99.99,,,0.00,Acu-Link.com,2013-08-30 02:16:00,
2013-08-29 22:31:00,74.3,74.0,29.81,WNW,292,0.0,-999.0,99,-99.99,,,0.00,Acu-Link.com,2013-08-30 02:31:00,
2013-08-29 22:46:00,73.9,73.6,29.82,East,90,0.0,-999.0,99,-99.99,,,0.00,Acu-Link.com,2013-08-30 02:46:00,
2013-08-29 23:02:00,73.6,73.3,29.82,NE,45,0.0,-999.0,99,-99.99,,,0.00,Acu-Link.com,2013-08-30 03:02:00,
2013-08-29 23:17:00,73.4,73.1,29.82,ESE,112,0.0,-999.0,99,-99.99,,,0.00,Acu-Link.com,2013-08-30 03:17:00,
2013-08-29 23:32:00,73.2,72.9,29.82,WNW,292,0.0,-999.0,99,-99.99,,,0.00,Acu-Link.com,2013-08-30 03:32:00,
2013-08-29 23:47:00,72.9,72.6,29.81,ENE,67,0.0,-999.0,99,-99.99,,,0.00,Acu-Link.com,2013-08-30 03:47:00,